Weather History for KPOB - October, 2012

Change the Weather History Date:

Friday, October 19, 2012

  Actual Average Record
Temperature  
Mean Temperature 65 °F -  
Max Temperature 78 °F 71 °F 84 °F (1998)
Min Temperature 52 °F 47 °F 37 °F (1981)
Growing Degree Days 15 (Base 50)    
Moisture  
Dew Point 62 °F    
Average Humidity 87    
Maximum Humidity 100    
Minimum Humidity 29    
Precipitation  
Precipitation 0.05 in - - ()
Sea Level Pressure  
Sea Level Pressure 29.77 in    
Wind  
Wind Speed 5 mph (WSW)    
Max Wind Speed 17 mph    
Max Gust Speed 26 mph    
Visibility 7 miles    
Events Rain    
Averages and records for this station are not official NWS values.
T = Trace of Precipitation, MM = Missing Value Source: NWS Daily Summary

Daily Weather History Graph

Daily Weather History Graph

Search for Another Location

Airport or City:

Trip Planner

Search our weather history database for the weather conditions in past years. The results will help you decide how hot, cold, wet, or windy it might be!

Date:

Astronomy

Oct. 19, 2012 Rise Set
Actual Time 7:25 AM EDT 6:35 PM EDT
Civil Twilight 7:00 AM EDT 7:01 PM EDT
Nautical Twilight 6:30 AM EDT 7:30 PM EDT
Astronomical Twilight 6:01 AM EDT 7:59 PM EDT
Moon 11:59 AM EDT (10/19) 10:19 PM EDT (10/19)
Length of Visible Light 12h 00m
Length of Day
11h 09m
Waxing Crescent, 23% of the Moon is Illuminated
Oct 19
Waxing Crescent
Oct 21
First Quarter
Oct 29
Full
Nov 6
Last Quarter
Nov 13
New

Hourly Weather History & Observations

Time (EDT) Temp. Dew Point Humidity Pressure Visibility Wind Dir Wind Speed Gust Speed Precip Events Conditions
12:32 AM 68.0 °F 66.2 °F 94% 29.79 in 5.0 mi SW 4.6 mph - N/A   Clear
12:55 AM 67.5 °F 65.5 °F 93% 29.78 in 5.0 mi SSW 3.5 mph - N/A   Clear
1:13 AM 68.0 °F 66.2 °F 94% 29.78 in 4.0 mi Calm Calm - N/A   Scattered Clouds
1:24 AM 66.2 °F 66.2 °F 100% 29.78 in 4.0 mi WSW 4.6 mph - N/A   Mostly Cloudy
1:28 AM 66.2 °F 64.4 °F 94% 29.78 in 4.0 mi WSW 3.5 mph - N/A   Mostly Cloudy
1:42 AM 66.2 °F 64.4 °F 94% 29.78 in 4.0 mi SSW 4.6 mph - N/A   Overcast
1:55 AM 67.1 °F 65.7 °F 95% 29.78 in 4.0 mi SSW 5.8 mph - N/A   Overcast
1:58 AM 68.0 °F 66.2 °F 94% 29.78 in 4.0 mi SSW 4.6 mph - N/A   Overcast
2:13 AM 68.0 °F 66.2 °F 94% 29.77 in 5.0 mi SW 4.6 mph - N/A   Overcast
2:30 AM 68.0 °F 66.2 °F 94% 29.77 in 4.0 mi SSW 5.8 mph - N/A   Overcast
2:35 AM 68.0 °F 66.2 °F 94% 29.77 in 5.0 mi SW 5.8 mph - N/A   Overcast
2:40 AM 68.0 °F 66.2 °F 94% 29.77 in 5.0 mi SW 5.8 mph - N/A Rain Light Rain
2:51 AM 68.0 °F 66.2 °F 94% 29.76 in 5.0 mi SSW 4.6 mph - N/A   Mostly Cloudy
2:55 AM 67.3 °F 65.8 °F 95% 29.76 in 5.0 mi SSW 4.6 mph - 0.00 in   Mostly Cloudy
3:09 AM 68.0 °F 66.2 °F 94% 29.76 in 4.0 mi SW 8.1 mph - N/A   Mostly Cloudy
3:55 AM 66.9 °F 65.8 °F 96% 29.75 in 4.0 mi WSW 5.8 mph - N/A   Mostly Cloudy
4:11 AM 66.2 °F 66.2 °F 100% 29.75 in 4.0 mi WSW 6.9 mph - N/A   Overcast
4:21 AM 66.2 °F 66.2 °F 100% 29.75 in 4.0 mi West 4.6 mph - N/A   Mostly Cloudy
4:29 AM 66.2 °F 66.2 °F 100% 29.75 in 4.0 mi West 5.8 mph - N/A   Mostly Cloudy
4:30 AM 66.2 °F 66.2 °F 100% 29.75 in 4.0 mi WSW 5.8 mph - N/A   Mostly Cloudy
4:31 AM 66.2 °F 66.2 °F 100% 29.75 in 4.0 mi WSW 5.8 mph - N/A   Mostly Cloudy
4:32 AM 66.2 °F 66.2 °F 100% 29.75 in 4.0 mi WSW 5.8 mph - N/A   Mostly Cloudy
4:42 AM 66.2 °F 66.2 °F 100% 29.76 in 3.0 mi West 4.6 mph - N/A   Overcast
4:52 AM 66.2 °F 66.2 °F 100% 29.75 in 3.0 mi West 5.8 mph - N/A   Overcast
4:55 AM 66.9 °F 65.8 °F 96% 29.75 in 3.0 mi West 4.6 mph - N/A   Overcast
4:56 AM 66.2 °F 66.2 °F 100% 29.75 in 3.0 mi WSW 5.8 mph - N/A   Overcast
4:57 AM 66.2 °F 66.2 °F 100% 29.75 in 4.0 mi WSW 6.9 mph - N/A   Overcast
5:00 AM 66.2 °F 66.2 °F 100% 29.75 in 4.0 mi West 6.9 mph - N/A   Overcast
5:01 AM 66.2 °F 66.2 °F 100% 29.75 in 4.0 mi West 8.1 mph - N/A   Overcast
5:04 AM 68.0 °F 66.2 °F 94% 29.76 in 5.0 mi West 6.9 mph - N/A Rain Light Rain
5:08 AM 68.0 °F 66.2 °F 94% 29.75 in 6.0 mi West 8.1 mph - N/A Rain Light Rain
5:23 AM 66.2 °F 66.2 °F 100% 29.76 in 6.0 mi West 9.2 mph - N/A Rain Rain
5:26 AM 66.2 °F 64.4 °F 94% 29.76 in 5.0 mi West 10.4 mph - N/A Rain Rain
5:40 AM 66.2 °F 64.4 °F 94% 29.77 in 8.0 mi WSW 4.6 mph - N/A Rain Light Rain
5:52 AM 66.2 °F 64.4 °F 94% 29.77 in 10.0 mi SW 6.9 mph - N/A   Overcast
5:55 AM 65.3 °F 63.9 °F 95% 29.77 in 10.0 mi SW 6.9 mph - 0.04 in   Overcast
6:02 AM 66.2 °F 64.4 °F 94% 29.76 in 8.0 mi SW 5.8 mph - N/A   Light Drizzle
6:11 AM 66.2 °F 64.4 °F 94% 29.76 in 9.0 mi WSW 8.1 mph - N/A   Mostly Cloudy
6:30 AM 64.4 °F 64.4 °F 100% 29.77 in 10.0 mi WSW 6.9 mph - N/A   Light Drizzle
6:37 AM 64.4 °F 64.4 °F 100% 29.77 in 10.0 mi WSW 6.9 mph - N/A   Scattered Clouds
6:47 AM 64.4 °F 64.4 °F 100% 29.77 in 10.0 mi WSW 5.8 mph - N/A   Mostly Cloudy
6:55 AM 65.1 °F 64.6 °F 98% 29.77 in 10.0 mi WSW 5.8 mph - 0.00 in   Mostly Cloudy
7:05 AM 64.4 °F 64.4 °F 100% 29.77 in 10.0 mi West 4.6 mph - N/A   Mostly Cloudy
7:07 AM 64.4 °F 64.4 °F 100% 29.77 in 10.0 mi West 4.6 mph - N/A   Mostly Cloudy
7:09 AM 64.4 °F 64.4 °F 100% 29.77 in 10.0 mi WSW 4.6 mph - N/A   Mostly Cloudy
7:14 AM 64.4 °F 62.6 °F 94% 29.77 in 10.0 mi Calm Calm - N/A   Mostly Cloudy
7:55 AM 64.6 °F 63.9 °F 98% 29.77 in 10.0 mi SSW 3.5 mph - N/A   Clear
8:30 AM 66.2 °F 64.4 °F 94% 29.77 in 10.0 mi Calm Calm - N/A   Mostly Cloudy
8:42 AM 66.2 °F 64.4 °F 94% 29.79 in 10.0 mi SSW 3.5 mph - N/A   Mostly Cloudy
8:52 AM 66.2 °F 64.4 °F 94% 29.79 in 10.0 mi SSW 4.6 mph - N/A   Overcast
8:55 AM 65.5 °F 64.6 °F 97% 29.79 in 10.0 mi SSW 4.6 mph - N/A   Mostly Cloudy
9:03 AM 66.2 °F 64.4 °F 94% 29.80 in 10.0 mi SSW 4.6 mph - N/A   Scattered Clouds
9:35 AM 68.0 °F 66.2 °F 94% 29.80 in 10.0 mi West 5.8 mph - N/A   Partly Cloudy
9:54 AM 68.0 °F 64.4 °F 88% 29.80 in 10.0 mi West 6.9 mph - N/A   Mostly Cloudy
9:55 AM 68.4 °F 64.8 °F 88% 29.80 in 10.0 mi West 5.8 mph - N/A   Mostly Cloudy
9:58 AM 68.0 °F 64.4 °F 88% 29.80 in 10.0 mi West 5.8 mph - N/A   Mostly Cloudy
10:22 AM 69.8 °F 64.4 °F 83% 29.79 in 10.0 mi West 5.8 mph - N/A   Scattered Clouds
10:55 AM 71.4 °F 64.0 °F 77% 29.79 in 10.0 mi WSW 8.1 mph - 0.01 in   Clear
11:55 AM 74.7 °F 57.9 °F 56% 29.80 in 10.0 mi WSW 10.4 mph 17.3 mph N/A   Clear
12:55 PM 76.5 °F 54.9 °F 47% 29.78 in 10.0 mi WSW 12.7 mph - N/A   Clear
1:55 PM 77.0 °F 51.4 °F 41% 29.75 in 10.0 mi SSW 12.7 mph - N/A   Clear
2:55 PM 78.1 °F 43.5 °F 29% 29.73 in 10.0 mi SW 15.0 mph 26.5 mph N/A   Clear
3:55 PM 77.5 °F 45.0 °F 31% 29.72 in 10.0 mi SW 17.3 mph 23.0 mph N/A   Clear
4:55 PM 75.9 °F 41.5 °F 29% 29.72 in 10.0 mi WSW 11.5 mph - N/A   Clear
5:55 PM 72.5 °F 41.5 °F 33% 29.72 in 10.0 mi WSW 9.2 mph - N/A   Clear
6:55 PM 66.2 °F 44.6 °F 46% 29.74 in 10.0 mi SW 5.8 mph - N/A   Clear
7:55 PM 63.0 °F 43.9 °F 50% 29.75 in 10.0 mi SW 5.8 mph - N/A   Clear
8:55 PM 62.6 °F 42.6 °F 48% 29.77 in 10.0 mi SSW 5.8 mph - N/A   Clear
9:55 PM 52.3 °F 48.4 °F 86% 29.79 in 10.0 mi Calm Calm - N/A   Clear
10:55 PM 53.1 °F 48.7 °F 85% 29.80 in 10.0 mi Calm Calm - N/A   Clear
11:55 PM 53.2 °F 46.0 °F 77% 29.81 in 10.0 mi SW 6.9 mph - N/A   Clear